Location: Hertford
(51.8000°N, 0.0667°W)
Time: 01:59:09
(UTC+00:00)

OBJECT-B - Pass Details

Date: 18 September 2020
Orbit: 421 x 433 km, 97.0° (Epoch: 09 October)

Event Time Altitude Azimuth Distance (km) Brightness Sun altitude
Exits shadow 19:01:25 13° 103° (ESE) 1,333 2.6 -9.1°
Maximum altitude 19:03:10 19° 65° (ENE) 1,082 2.4 -9.4°
Drops below altitude 10° 19:05:33 10° 18° (NNE) 1,525 3.6 -9.8°
Sets 19:07:56 0° 360° (N) 2,399 4.8 -10.1°
